• In Hungary
  • List of Countries
  • For 7 days
  • Water Temperature
  • Satellite Maps
  • Weather Map
  • News
  • Weather Widgets
  • user-avatar
    Login

    Hourly Weather Novoe Shantalovo

    Today, 18 August, Saturday

    Time Temperature Precipitation Wind Pressure Humidity
    00:00 +14°C° 0 mm 3 mps 747 mmHg 88%
    01:00 +14°C° 0 mm 3 mps 747 mmHg 90%
    02:00 +15°C° 0 mm 2 mps 748 mmHg 91%
    03:00 +14°C° 0 mm 2 mps 747 mmHg 92%
    04:00 +14°C° 0 mm 2 mps 747 mmHg 92%
    05:00 +14°C° 0 mm 2 mps 747 mmHg 93%
    06:00 +16°C° 0 mm 3 mps 748 mmHg 88%
    07:00 +17°C° 0 mm 3 mps 748 mmHg 83%
    08:00 +19°C° 0 mm 3 mps 748 mmHg 77%
    09:00 +21°C° 0 mm 3 mps 748 mmHg 73%
    10:00 +22°C° 0 mm 3 mps 748 mmHg 69%
    11:00 +24°C° 0 mm 3 mps 748 mmHg 64%
    12:00 +25°C° 0 mm 4 mps 747 mmHg 63%
    13:00 +25°C° 0 mm 4 mps 747 mmHg 62%
    14:00 +26°C° 0 mm 4 mps 747 mmHg 61%
    15:00 +26°C° 0 mm 3 mps 747 mmHg 64%
    16:00 +25°C° 0 mm 3 mps 747 mmHg 67%
    17:00 +25°C° 0 mm 3 mps 747 mmHg 70%
    18:00 +22°C° 0 mm 3 mps 747 mmHg 75%
    19:00 +21°C° 0 mm 2 mps 747 mmHg 79%
    20:00 +19°C° 0 mm 2 mps 747 mmHg 83%
    21:00 +18°C° 0.1 mm 3 mps 747 mmHg 84%
    22:00 +18°C° 0.1 mm 3 mps 747 mmHg 84%
    23:00 +17°C° 0.1 mm 3 mps 747 mmHg 84%

    Tomorrow, 19 August, Sunday

    Time Temperature Precipitation Wind Pressure Humidity
    00:00 +17°C° 0 mm 3 mps 747 mmHg 84%
    01:00 +17°C° 0 mm 3 mps 747 mmHg 84%
    02:00 +16°C° 0 mm 3 mps 746 mmHg 84%
    03:00 +16°C° 0 mm 3 mps 746 mmHg 85%
    04:00 +16°C° 0 mm 3 mps 746 mmHg 86%
    05:00 +14°C° 0 mm 3 mps 746 mmHg 87%
    06:00 +17°C° 0.1 mm 3 mps 746 mmHg 85%
    07:00 +18°C° 0.1 mm 4 mps 746 mmHg 82%
    08:00 +19°C° 0.1 mm 4 mps 746 mmHg 79%
    09:00 +21°C° 0.1 mm 4 mps 746 mmHg 76%
    10:00 +22°C° 0.1 mm 4 mps 746 mmHg 73%
    11:00 +25°C° 0.1 mm 4 mps 746 mmHg 70%
    12:00 +25°C° 0.5 mm 4 mps 745 mmHg 70%
    13:00 +26°C° 0.5 mm 4 mps 745 mmHg 70%
    14:00 +26°C° 0.5 mm 5 mps 745 mmHg 69%
    15:00 +26°C° 0.5 mm 4 mps 745 mmHg 73%
    16:00 +25°C° 0.5 mm 3 mps 745 mmHg 76%
    17:00 +25°C° 0.5 mm 3 mps 744 mmHg 79%
    18:00 +22°C° 0.4 mm 3 mps 744 mmHg 83%
    19:00 +21°C° 0.4 mm 2 mps 744 mmHg 87%
    20:00 +19°C° 0.4 mm 2 mps 745 mmHg 91%
    21:00 +18°C° 0.3 mm 2 mps 745 mmHg 90%
    22:00 +17°C° 0.3 mm 2 mps 745 mmHg 90%
    23:00 +16°C° 0.3 mm 2 mps 745 mmHg 89%

    Day after tomorrow, 20 August, Monday

    Time Temperature Precipitation Wind Pressure Humidity
    00:00 +16°C° 0 mm 2 mps 744 mmHg 89%
    01:00 +15°C° 0 mm 2 mps 744 mmHg 89%
    02:00 +15°C° 0 mm 2 mps 744 mmHg 88%
    03:00 +14°C° 0 mm 1 mps 744 mmHg 89%
    04:00 +14°C° 0 mm 1 mps 744 mmHg 90%
    05:00 +14°C° 0 mm 1 mps 744 mmHg 92%
    06:00 +16°C° 0 mm 1 mps 745 mmHg 88%
    07:00 +18°C° 0 mm 1 mps 745 mmHg 85%
    08:00 +20°C° 0 mm 1 mps 745 mmHg 82%
    09:00 +21°C° 0 mm 1 mps 745 mmHg 77%
    10:00 +21°C° 0 mm 2 mps 745 mmHg 72%
    11:00 +24°C° 0 mm 2 mps 745 mmHg 67%
    12:00 +24°C° 0 mm 2 mps 744 mmHg 67%
    13:00 +25°C° 0 mm 2 mps 744 mmHg 67%
    14:00 +25°C° 0 mm 3 mps 744 mmHg 66%
    15:00 +25°C° 0 mm 2 mps 743 mmHg 68%
    16:00 +25°C° 0 mm 2 mps 743 mmHg 70%
    17:00 +25°C° 0 mm 2 mps 743 mmHg 73%
    18:00 +23°C° 0 mm 2 mps 743 mmHg 78%
    19:00 +20°C° 0 mm 2 mps 742 mmHg 83%
    20:00 +19°C° 0 mm 2 mps 742 mmHg 88%
    21:00 +18°C° 0 mm 2 mps 742 mmHg 89%
    22:00 +18°C° 0 mm 2 mps 742 mmHg 90%
    23:00 +18°C° 0 mm 2 mps 742 mmHg 91%

    21 August, Tuesday

    Time Temperature Precipitation Wind Pressure Humidity
    00:00 +17°C° 0 mm 3 mps 741 mmHg 91%
    01:00 +17°C° 0 mm 3 mps 741 mmHg 90%
    02:00 +17°C° 0 mm 3 mps 740 mmHg 90%
    03:00 +17°C° 0 mm 3 mps 740 mmHg 89%
    04:00 +17°C° 0 mm 4 mps 740 mmHg 88%
    05:00 +17°C° 0 mm 4 mps 740 mmHg 87%
    06:00 +17°C° 0.1 mm 5 mps 739 mmHg 83%
    07:00 +19°C° 0.1 mm 5 mps 739 mmHg 80%
    08:00 +20°C° 0.1 mm 6 mps 739 mmHg 76%
    09:00 +21°C° 0.5 mm 6 mps 739 mmHg 76%
    10:00 +22°C° 0.5 mm 6 mps 739 mmHg 76%
    11:00 +23°C° 0.5 mm 6 mps 738 mmHg 76%
    12:00 +22°C° 0.7 mm 6 mps 739 mmHg 77%
    13:00 +22°C° 0.7 mm 6 mps 739 mmHg 77%
    14:00 +22°C° 0.7 mm 6 mps 739 mmHg 78%
    15:00 +21°C° 0.2 mm 6 mps 739 mmHg 77%
    16:00 +21°C° 0.2 mm 5 mps 739 mmHg 75%
    17:00 +21°C° 0.2 mm 4 mps 739 mmHg 74%
    18:00 +19°C° 0 mm 4 mps 740 mmHg 75%
    19:00 +17°C° 0 mm 3 mps 741 mmHg 77%
    20:00 +16°C° 0 mm 3 mps 741 mmHg 78%
    21:00 +14°C° 0 mm 3 mps 742 mmHg 79%
    22:00 +13°C° 0 mm 3 mps 742 mmHg 79%
    23:00 +12°C° 0 mm 3 mps 743 mmHg 80%

    22 August, Wednesday

    Time Temperature Precipitation Wind Pressure Humidity
    00:00 +12°C° 0 mm 3 mps 743 mmHg 81%
    01:00 +11°C° 0 mm 3 mps 744 mmHg 82%
    02:00 +11°C° 0 mm 3 mps 744 mmHg 83%
    03:00 +10°C° 0 mm 3 mps 744 mmHg 85%
    04:00 +10°C° 0 mm 3 mps 745 mmHg 87%
    05:00 +9°C° 0 mm 3 mps 745 mmHg 90%
    06:00 +10°C° 0 mm 4 mps 746 mmHg 85%
    07:00 +11°C° 0 mm 4 mps 746 mmHg 81%
    08:00 +13°C° 0 mm 4 mps 747 mmHg 77%
    09:00 +14°C° 0 mm 4 mps 747 mmHg 72%
    10:00 +15°C° 0 mm 4 mps 747 mmHg 67%
    11:00 +17°C° 0 mm 4 mps 748 mmHg 61%
    12:00 +18°C° 0 mm 4 mps 748 mmHg 59%
    13:00 +19°C° 0 mm 4 mps 748 mmHg 57%
    14:00 +19°C° 0 mm 4 mps 748 mmHg 55%
    15:00 +19°C° 0 mm 4 mps 748 mmHg 58%
    16:00 +19°C° 0 mm 3 mps 748 mmHg 61%
    17:00 +19°C° 0 mm 2 mps 749 mmHg 63%
    18:00 +17°C° 0 mm 2 mps 749 mmHg 67%
    19:00 +15°C° 0 mm 2 mps 749 mmHg 71%
    20:00 +13°C° 0 mm 1 mps 749 mmHg 74%
    21:00 +12°C° 0 mm 1 mps 749 mmHg 76%
    22:00 +12°C° 0 mm 1 mps 750 mmHg 77%
    23:00 +11°C° 0 mm 1 mps 750 mmHg 78%

    23 August, Thursday

    Time Temperature Precipitation Wind Pressure Humidity
    00:00 +11°C° 0 mm 1 mps 750 mmHg 79%
    01:00 +11°C° 0 mm 1 mps 750 mmHg 80%
    02:00 +9°C° 0 mm 0 mps 750 mmHg 81%
    03:00 +10°C° 0 mm 1 mps 750 mmHg 81%
    04:00 +10°C° 0 mm 1 mps 750 mmHg 81%
    05:00 +10°C° 0 mm 1 mps 750 mmHg 81%
    06:00 +12°C° 0 mm 1 mps 750 mmHg 77%
    07:00 +14°C° 0 mm 1 mps 750 mmHg 72%
    08:00 +16°C° 0 mm 2 mps 750 mmHg 68%
    09:00 +17°C° 0 mm 2 mps 750 mmHg 63%
    10:00 +18°C° 0 mm 2 mps 750 mmHg 59%
    11:00 +19°C° 0 mm 2 mps 750 mmHg 55%
    12:00 +20°C° 0 mm 2 mps 750 mmHg 54%
    13:00 +20°C° 0 mm 2 mps 749 mmHg 53%
    14:00 +21°C° 0 mm 2 mps 749 mmHg 52%
    15:00 +21°C° 0 mm 2 mps 749 mmHg 55%
    16:00 +21°C° 0 mm 2 mps 749 mmHg 59%
    17:00 +20°C° 0 mm 2 mps 748 mmHg 63%
    18:00 +18°C° 0 mm 2 mps 748 mmHg 67%
    19:00 +16°C° 0 mm 2 mps 748 mmHg 71%
    20:00 +14°C° 0 mm 2 mps 748 mmHg 75%
    21:00 +14°C° 0 mm 2 mps 748 mmHg 76%
    22:00 +13°C° 0 mm 2 mps 748 mmHg 78%
    23:00 +13°C° 0 mm 2 mps 748 mmHg 79%
    Show more